Location: Arthez
(43.0833°N, 0.2500°W)
Time: 13:36:52
(UTC+00:00)

Cosmos 1626 Rocket - Pass Details

Date: 23 October 2021
Orbit: 603 x 630 km, 82.5° (Epoch: 07 December)

Event Time Altitude Azimuth Distance (km) Brightness Sun altitude
Rises 18:03:39 0° 357° (N) 2,868 7.0 -11.3°
Reaches altitude 10° 18:05:57 10° 4° (N) 1,959 6.0 -11.7°
Maximum altitude 18:10:07 45° 78° (ENE) 822 3.7 -12.4°
Drops below altitude 10° 18:14:15 10° 152° (SSE) 1,945 5.9 -13.2°
Sets 18:16:32 0° 158° (SSE) 2,846 6.8 -13.6°
